Date String (YYYY-MM-DD hh:mm:ss) UTC,Instrument flags,Ambient pressure (hPa),Sample flow (lpm),Bypass flow (lpm),Sample temperature (°C),Ambient temperature (°C),ASC tube jacket temperature (°C),LED temperature (°C),Box temperature (°C),Sample RH (%),Span deviation,Mass concentration (μg/m³),Mass concentration (μg/m³),Mass concentration (μg/m³)
DateTimeUTC,F1_M11,P_M11,Q1_M11,Q2_M11,T1_M11,T2_M11,T3_M11,T4_M11,T5_M11,U1_M11,ZSPAN_M11,X0_M11,X2_M11,X1_M11
2021-12-17 22:00:00,,0823.4,5.00,0.00,22.1,20.9,00.0,31.3,23.6,06.5,0000.0,0000.62,0000.32,0000.23
2021-12-17 22:01:00,,0823.6,5.00,0.00,22.1,21.0,00.0,31.3,23.7,06.5,0000.0,0000.58,0000.30,0000.22
2021-12-17 22:02:00,,0823.7,5.00,0.00,22.1,20.9,00.0,31.3,23.6,06.5,0000.0,0000.55,0000.30,0000.22
2021-12-17 22:03:00,,0823.7,4.99,0.00,22.1,20.9,00.0,31.2,23.6,06.5,0000.0,0000.46,0000.28,0000.22
2021-12-17 22:04:00,,0823.7,5.00,0.00,22.1,20.8,00.0,31.2,23.5,06.4,0000.0,0000.46,0000.28,0000.22
2021-12-17 22:05:00,,0823.7,5.00,0.00,22.0,20.8,00.0,31.2,23.5,06.5,0000.0,0000.48,0000.29,0000.22
2021-12-17 22:06:00,,0823.7,5.00,0.00,22.0,20.8,00.0,31.2,23.6,06.5,0000.0,0000.50,0000.31,0000.22
2021-12-17 22:07:00,,0823.6,4.99,0.00,22.0,20.8,00.0,31.2,23.5,06.4,0000.0,0000.45,0000.29,0000.22
2021-12-17 22:08:00,,0823.7,5.00,0.00,22.1,21.3,00.0,31.2,23.8,06.4,0000.0,0000.46,0000.31,0000.22
2021-12-17 22:09:00,,0823.7,4.99,0.00,22.2,22.2,00.0,31.3,24.1,06.4,0000.0,0000.54,0000.32,0000.22
2021-12-17 22:10:00,,0823.8,5.00,0.00,22.3,22.9,00.0,31.3,24.4,06.5,0000.0,0000.60,0000.32,0000.22
2021-12-17 22:11:00,,0823.7,5.00,0.00,22.4,22.9,00.0,31.3,24.4,06.4,0000.0,0000.59,0000.31,0000.22
2021-12-17 22:12:00,,0823.7,5.01,0.00,22.5,22.7,00.0,31.3,24.4,06.5,0000.0,0000.61,0000.32,0000.22
2021-12-17 22:13:00,,0823.7,5.00,0.00,22.5,22.5,00.0,31.4,24.3,06.5,0000.0,0000.63,0000.34,0000.22
2021-12-17 22:14:00,,0823.6,5.00,0.00,22.5,22.3,00.0,31.4,24.2,06.5,0000.0,0000.63,0000.33,0000.21
2021-12-17 22:15:00,,0823.7,5.01,0.00,22.5,22.2,00.0,31.4,24.2,06.6,0000.0,0000.64,0000.34,0000.22
2021-12-17 22:16:00,,0823.7,4.99,0.00,22.4,22.1,00.0,31.4,24.1,06.6,0000.0,0000.63,0000.33,0000.21
2021-12-17 22:17:00,,0823.6,5.01,0.00,22.4,22.0,00.0,31.4,24.1,06.6,0000.0,0000.59,0000.31,0000.21
2021-12-17 22:18:00,,0823.7,5.00,0.00,22.4,21.9,00.0,31.4,24.0,06.6,0000.0,0000.59,0000.31,0000.21
2021-12-17 22:19:00,,0823.7,5.00,0.00,22.4,21.7,00.0,31.4,24.0,06.5,0000.0,0000.54,0000.30,0000.22
2021-12-17 22:20:00,,0823.8,5.02,0.00,22.4,21.7,00.0,31.4,24.0,06.6,0000.0,0000.48,0000.29,0000.22
2021-12-17 22:21:00,,0823.8,4.99,0.00,22.4,21.6,00.0,31.4,23.9,06.5,0000.0,0000.37,0000.27,0000.22
2021-12-17 22:22:00,,0823.8,5.00,0.00,22.3,21.5,00.0,31.4,23.9,06.5,0000.0,0000.37,0000.28,0000.22
2021-12-17 22:23:00,,0823.8,5.01,0.00,22.3,21.4,00.0,31.4,23.8,06.6,0000.0,0000.38,0000.27,0000.22
2021-12-17 22:24:00,,0823.8,4.99,0.00,22.3,21.4,00.0,31.4,23.8,06.6,0000.0,0000.41,0000.27,0000.22
2021-12-17 22:25:00,,0823.8,5.00,0.00,22.3,21.4,00.0,31.4,23.7,06.4,0000.0,0000.45,0000.28,0000.23
2021-12-17 22:26:00,,0823.8,5.01,0.00,22.2,21.3,00.0,31.4,23.8,06.5,0000.0,0000.49,0000.29,0000.23
2021-12-17 22:27:00,,0823.8,4.99,0.00,22.2,21.4,00.0,31.4,23.8,06.5,0000.0,0000.51,0000.30,0000.23
2021-12-17 22:28:00,,0823.9,5.02,0.00,22.2,21.3,00.0,31.3,23.7,06.4,0000.0,0000.55,0000.32,0000.23
2021-12-17 22:29:00,,0824.0,5.00,0.00,22.2,21.3,00.0,31.3,23.6,06.4,0000.0,0000.58,0000.34,0000.23
2021-12-17 22:30:00,,0824.1,5.01,0.00,22.2,21.2,00.0,31.3,23.6,06.5,0000.0,0000.64,0000.35,0000.23
2021-12-17 22:31:00,,0824.1,5.00,0.00,22.1,21.1,00.0,31.3,23.5,06.6,0000.0,0000.78,0000.38,0000.23
2021-12-17 22:32:00,,0824.1,5.00,0.00,22.1,21.0,00.0,31.3,23.5,06.6,0000.0,0000.84,0000.40,0000.23
2021-12-17 22:33:00,,0824.1,4.99,0.00,22.1,21.0,00.0,31.3,23.5,06.7,0000.0,0000.84,0000.40,0000.23
2021-12-17 22:34:00,,0824.1,5.02,0.00,22.0,21.0,00.0,31.2,23.4,06.6,0000.0,0000.80,0000.39,0000.23
2021-12-17 22:35:00,,0824.1,4.97,0.00,22.0,21.0,00.0,31.2,23.4,06.6,0000.0,0000.78,0000.38,0000.23
2021-12-17 22:36:00,,0824.2,5.02,0.00,22.0,21.0,00.0,31.2,23.5,06.7,0000.0,0000.79,0000.40,0000.23
2021-12-17 22:37:00,,0824.2,5.00,0.00,22.0,20.9,00.0,31.2,23.4,06.8,0000.0,0000.74,0000.39,0000.23
2021-12-17 22:38:00,,0824.1,5.00,0.00,22.0,20.9,00.0,31.2,23.4,06.8,0000.0,0000.77,0000.40,0000.24
2021-12-17 22:39:00,,0824.1,5.00,0.00,22.0,20.9,00.0,31.2,23.4,06.9,0000.0,0000.73,0000.39,0000.24
2021-12-17 22:40:00,,0824.1,5.00,0.00,22.0,21.3,00.0,31.2,23.7,06.8,0000.0,0000.71,0000.37,0000.24
2021-12-17 22:41:00,,0824.1,5.00,0.00,22.1,22.1,00.0,31.2,24.0,06.7,0000.0,0000.69,0000.37,0000.24
2021-12-17 22:42:00,,0824.2,5.00,0.00,22.3,22.9,00.0,31.3,24.3,06.6,0000.0,0000.57,0000.35,0000.23
2021-12-17 22:43:00,,0824.2,5.01,0.00,22.4,23.2,00.0,31.3,24.5,06.6,0000.0,0000.51,0000.34,0000.24
2021-12-17 22:44:00,,0824.1,4.99,0.00,22.4,22.9,00.0,31.3,24.4,06.7,0000.0,0000.57,0000.35,0000.23
2021-12-17 22:45:00,,0824.1,5.01,0.00,22.4,22.7,00.0,31.3,24.3,06.7,0000.0,0000.76,0000.38,0000.23
2021-12-17 22:46:00,,0824.1,4.99,0.00,22.4,22.4,00.0,31.3,24.2,06.5,0000.0,0000.90,0000.40,0000.23
2021-12-17 22:47:00,,0824.2,5.00,0.00,22.4,22.2,00.0,31.4,24.2,06.4,0000.0,0000.95,0000.38,0000.23
2021-12-17 22:48:00,,0824.2,5.01,0.00,22.4,22.0,00.0,31.4,24.1,06.3,0000.0,0000.96,0000.38,0000.22
2021-12-17 22:49:00,,0824.1,5.00,0.00,22.3,21.8,00.0,31.4,24.0,06.2,0000.0,0000.93,0000.37,0000.22
2021-12-17 22:50:00,,0824.2,4.99,0.00,22.3,21.7,00.0,31.3,24.0,06.1,0000.0,0000.94,0000.37,0000.22
2021-12-17 22:51:00,,0824.3,5.00,0.00,22.3,21.5,00.0,31.3,23.8,06.1,0000.0,0000.95,0000.37,0000.22
2021-12-17 22:52:00,,0824.4,5.00,0.00,22.2,21.5,00.0,31.3,23.8,06.2,0000.0,0000.91,0000.35,0000.22
2021-12-17 22:53:00,,0824.4,5.01,0.00,22.2,21.4,00.0,31.3,23.8,06.4,0000.0,0000.92,0000.35,0000.22
2021-12-17 22:54:00,,0824.3,5.01,0.00,22.2,21.4,00.0,31.3,23.7,06.4,0000.0,0000.94,0000.36,0000.22
2021-12-17 22:55:00,,0824.4,4.99,0.00,22.1,21.3,00.0,31.3,23.7,06.4,0000.0,0000.91,0000.35,0000.21
2021-12-17 22:56:00,,0824.3,5.01,0.00,22.1,21.3,00.0,31.3,23.6,06.5,0000.0,0000.86,0000.34,0000.22
2021-12-17 22:57:00,,0824.4,5.01,0.00,22.1,21.2,00.0,31.2,23.6,06.5,0000.0,0000.79,0000.33,0000.22
2021-12-17 22:58:00,,0824.5,4.99,0.00,22.0,21.1,00.0,31.2,23.6,06.4,0000.0,0000.65,0000.31,0000.22
2021-12-17 22:59:00,,0824.5,5.00,0.00,22.0,21.0,00.0,31.2,23.4,06.5,0000.0,0000.66,0000.31,0000.23
